This demonstration page uses our WeatherBlox Daily Observations layout. Learn more.

Left ArrowRight Arrow

Hourly Observations for February 17, 2015

Temp ( °F °C ) Dew Point ( °F °C ) Humidity (%) Winds ( mph kmh ) Pressure ( in mb ) Visibility ( mi km ) Precip ( " mm )
12:51 am 00:51 Cloudy with Light Rain 54 12.2 45 7.2 72 72 WNW 3 6 29.90 1013 10 16 0.01 0.25
1:51 am 01:51 Mostly Cloudy 55 12.8 44 6.7 67 67 NW 8 13 29.90 1013 10 16 N/A
2:51 am 02:51 Partly Cloudy 53 11.7 39 3.9 59 59 NW 10 17 29.91 1013 10 16 N/A
3:51 am 03:51 Mostly Cloudy 52 11.1 35 1.7 53 53 NW 8 13 29.94 1014 10 16 N/A
4:51 am 04:51 Partly Cloudy 51 10.6 20 -6.7 29 29 NNW 12 19 29.96 1015 10 16 N/A
5:51 am 05:51 Mostly Clear 51 10.6 17 -8.3 26 26 NW 10 17 30.00 1016 10 16 N/A
6:51 am 06:51 Clear 50 10 16 -8.9 26 26 N N/A 30.04 1017 10 16 N/A
7:51 am 07:51 Sunny 51 10.6 22 -5.6 32 32 N N/A 30.07 1018 10 16 N/A
8:51 am 08:51 Sunny 51 10.6 20 -6.7 29 29 WSW 6 9 30.09 1019 10 16 N/A
9:51 am 09:51 Sunny 55 12.8 18 -7.8 23 23 WNW 6 9 30.09 1019 10 16 N/A
10:51 am 10:51 Sunny 59 15 12 -11.1 15 15 N N/A 30.11 1020 10 16 N/A
11:51 am 11:51 Sunny 62 16.7 10 -12.2 13 13 WNW 8 13 30.08 1019 10 16 N/A
12:51 pm 12:51 Sunny 65 18.3 10 -12.2 11 11 WNW 10 17 30.04 1017 10 16 N/A
1:51 pm 13:51 Sunny 67 19.4 9 -12.8 10 10 NW 12 19 30.00 1016 10 16 N/A
2:51 pm 14:51 Sunny 69 20.6 6 -14.4 8 8 NW 16 26 29.97 1015 10 16 N/A
3:51 pm 15:51 Sunny 69 20.6 6 -14.4 8 8 NW 15 24 29.96 1015 10 16 N/A
4:51 pm 16:51 Sunny 67 19.4 2 -16.7 7 7 NW 17 28 29.97 1015 10 16 N/A
5:51 pm 17:51 Sunny 64 17.8 6 -14.4 10 10 NW 15 24 29.97 1015 10 16 N/A
6:51 pm 18:51 Clear 60 15.6 8 -13.3 12 12 N 9 15 30.00 1016 10 16 N/A
7:51 pm 19:51 Clear 58 14.4 11 -11.7 15 15 NNW 10 17 30.03 1017 10 16 N/A
8:51 pm 20:51 Clear 51 10.6 16 -8.9 25 25 W 8 13 30.06 1018 10 16 N/A
9:51 pm 21:51 Clear 50 10 16 -8.9 26 26 WNW 10 17 30.06 1018 10 16 N/A
10:51 pm 22:51 Clear 50 10 16 -8.9 26 26 NNW 10 17 30.06 1018 10 16 N/A
11:51 pm 23:51 Clear 50 10 17 -8.3 27 27 NNW 10 17 30.06 1018 10 16 N/A

Powered by AerisWeather